Weather Roundup
Issued by NWS Chicago, IL

Home | Current Version | Previous Version | Text Only | Print | Product List | Glossary Off
Versions: 1 2 3 4 5 6 7 8 9 10 11 12 13 14 15 16 17 18 19 20 21 22 23 24 25 26 27 28 29 30 31 32 33 34 35 36 37 38 39 40 41 42 43 44 45 46 47 48 49 50

000
NZUS59 KLOT 181606
HRRLOT

CHICAGO AREA WEATHER ROUNDUP
NATIONAL WEATHER SERVICE CHICAGO/ROMEOVILLE IL
1100 AM CDT FRI APR 18 2014

NOTE: "FAIR" INDICATES FEW OR NO CLOUDS BELOW 12,000 FEET WITH NO
SIGNIFICANT WEATHER AND/OR OBSTRUCTIONS TO VISIBILITY.

* THESE STATIONS ARE NOT UNDER NWS QUALITY CONTROL. THEY ALSO MAY NOT
  REPORT WEATHER SUCH AS PRECIPITATION OR FOG.

ILZ005-006-012>014-019>023-181700-
NORTHEAST ILLINOIS

CITY           SKY/WX    TMP DP  RH WIND       PRES   REMARKS
OHARE          PTSUNNY   50  34  54 NE13      30.35R
MIDWAY         MOSUNNY   50  37  61 N10       30.35R
AURORA         SUNNY     52  38  58 NW6       30.34R
LANSING*       SUNNY     47  36  67 N12       30.34S
JOLIET*        SUNNY     54  37  53 NE3       30.34R
WAUKEGAN       MOSUNNY   44  32  62 N12       30.35R
DUPAGE AIRPORT SUNNY     52  37  56 N8        30.34R
WHEELING       MOSUNNY   48  35  60 NE10      30.37R
KANKAKEE*      SUNNY     56  40  53 N7        30.33R
MORRIS*        SUNNY     55  34  45 NW3       30.33R
LEWIS AIRPORT* SUNNY     53  37  54 N7        30.34R
NORTHERLY IS     N/A     42  34  73 MISG        N/A
$$

WIZ051-052-058>065-066-070>072-181700-
SOUTHEAST WISCONSIN

CITY           SKY/WX    TMP DP  RH WIND       PRES   REMARKS
MILWAUKEE      MOSUNNY   41  31  67 NE15G23   30.38S
KENOSHA*       SUNNY     46  34  62 NE14G22   30.36R
RACINE*        SUNNY     43  30  60 N16       30.38R
BURLINGTON     MOSUNNY   45  34  66 N6        30.35S
WAUKESHA       PTSUNNY   43  32  65 N5        30.37R
WEST BEND      CLOUDY    41  30  65 NW6       30.37S
$$

INZ001>003-010>013-019-020-181700-
NORTHWEST INDIANA

CITY           SKY/WX    TMP DP  RH WIND       PRES   REMARKS
GARY*          MOSUNNY   46  36  66 N14       30.36R
MICHIGAN CITY* NOT AVBL
RENSSELAER*    NOT AVBL
VALPARAISO     SUNNY     52  38  58 NW8       30.32R
$$

LMZ740>746-181700-
SOUTHERN LAKE MICHIGAN

STATION/POSITION TIME  SKY/WX   TEMP WIND        PRES    VSBY
                                AIR  DIR/SP/G
                 (UTC)          (F)  (DEG/KT/KT) (MB)    (MI)
HARRISON CRIB    1600            38  350/ 16/ 18   N/A
BURNHAM HARBOR   1600            43  340/ 16/ 17   N/A
CALUMET HARBOR   1600            41  340/ 16/ 20 1028.9R
BURNS HARBOR     NOT AVBL
MICHIGAN CITY    1600            40  310/  7/  8   N/A
$$

ABBREVIATIONS USED IN REMARKS
   TC - TEMPERATURE IN CELSIUS
  WCI - WIND CHILL INDEX
   HX - HEAT INDEX
  VSB - VISIBILITY
$$



USA.gov is the U.S. government's official web portal to all federal, state and local government web resources and services.